(241600) = 1999 JV39 = 2006 DQ201

Discovered at Socorro on 1999-05-10 by LINEAR.

Orbit

Orbit type: Main Belt

Note: WebGL enabled browser required.

epoch2024-03-31.0
epoch JD2460400.5
perihelion date2021-06-03.35960
perihelion JD2459368.85960
argument of perihelion (°)222.74186
ascending node (°)43.41689
inclination (°)6.72816
eccentricity0.1960023
perihelion distance (AU)1.8997171
Tisserand w.r.t. Jupiter3.5
ΔV w.r.t. Earth (km/sec)8.8
semimajor axis (AU)2.3628389
mean anomaly (°)279.95035
mean daily motion (°/day)0.27136430
aphelion distance (AU)2.826
period (years)3.63
P-vector [x]-0.07020478
P-vector [y]-0.88067663
P-vector [z]-0.46848688
Q-vector [x]0.99427726
Q-vector [y]-0.02386734
Q-vector [z]-0.10413013
absolute magnitude16.59
phase slope0.15
uncertainty0
referenceMPEC 2024-F28
observations used460
oppositions16
arc length (days)9081
first opposition used1999
last opposition used2024
residual rms (arc-secs)0.72
perturbers coarse indicatorM-v
perturbers precise indicator003Ek
first observation date used1999-05-08.0
last observation date used2024-03-18.0
computer nameMPCLINUX
JD of orbit computation2456937.192139
perihelion JD uncertainty (days)5.0401E-05
argument of perihelion uncertainty (°)4.0692E-05
ascending node uncertainty (°)3.7938E-05
inclination uncertainty (°)5.6559E-06
eccentricity uncertainty 4.3171E-08
perihelion distance uncertainty (AU)1.0044E-07
Minimum Orbit Intersection Distances (in AU)
for orbit epoch: 2460400.5, reference: E2024-GF4
Mercury1.4339
Venus1.17585
Earth0.89045
Mars0.40735
Jupiter2.2632
Saturn6.23744
Uranus15.9235
Neptune27.1042

Observations

471 total observations over interval: 1999 05 08.30404 – 2024 03 18.168216
These data are available for download (format description).

Date (UT) J2000 RA J2000 Dec Magn Location Ref
1999 05 08.30404 15 10 53.11 -19 05 28.0 18.2 R 699 – Lowell Observatory-LONEOS MPS 67532
1999 05 08.31678 15 10 52.24 -19 05 30.4   699 – Lowell Observatory-LONEOS MPS 67532
1999 05 08.32950 15 10 51.37 -19 05 31.3   699 – Lowell Observatory-LONEOS MPS 67532
1999 05 10.27938 15 08 47.69 -19 08 44.6 18.9   704 – Lincoln Laboratory ETS, New Mexico MPS 5030
1999 05 10.30383 15 08 46.10 -19 08 47.2 18.4   704 – Lincoln Laboratory ETS, New Mexico MPS 5030
1999 05 10.31602 15 08 45.17 -19 08 47.3 18.4   704 – Lincoln Laboratory ETS, New Mexico MPS 5030
1999 05 13.23473 15 05 38.27 -19 13 15.9 18.2   704 – Lincoln Laboratory ETS, New Mexico MPS 5030
1999 05 13.24987 15 05 37.19 -19 13 16.5 18.2   704 – Lincoln Laboratory ETS, New Mexico MPS 5030
1999 05 13.26498 15 05 36.35 -19 13 17.0 18.1   704 – Lincoln Laboratory ETS, New Mexico MPS 5030
1999 05 13.28011 15 05 35.25 -19 13 19.8 18.1   704 – Lincoln Laboratory ETS, New Mexico MPS 5030
1999 05 13.29521 15 05 34.12 -19 13 20.5 18.5   704 – Lincoln Laboratory ETS, New Mexico MPS 5030
1999 05 18.22206 15 00 20.99 -19 20 14.1 18.3   704 – Lincoln Laboratory ETS, New Mexico MPS 5030
1999 05 18.23606 15 00 20.12 -19 20 14.4 19.2   704 – Lincoln Laboratory ETS, New Mexico MPS 5030
1999 05 18.25019 15 00 19.14 -19 20 16.3 19.1   704 – Lincoln Laboratory ETS, New Mexico MPS 5030
1999 05 18.26421 15 00 18.23 -19 20 18.7 19.1   704 – Lincoln Laboratory ETS, New Mexico MPS 5030
1999 05 18.32735 15 00 14.18 -19 20 23.6 18.7 R 699 – Lowell Observatory-LONEOS MPS 5591
1999 05 18.34772 15 00 12.80 -19 20 25.0   699 – Lowell Observatory-LONEOS MPS 5591
1999 05 18.36809 15 00 11.46 -19 20 26.9   699 – Lowell Observatory-LONEOS MPS 5591
1999 05 19.22529 14 59 18.44 -19 21 33.6 19.1   704 – Lincoln Laboratory ETS, New Mexico MPS 5030
1999 05 19.23924 14 59 17.50 -19 21 36.3 19.0   704 – Lincoln Laboratory ETS, New Mexico MPS 5030
1999 05 19.25317 14 59 16.71 -19 21 36.2 19.0   704 – Lincoln Laboratory ETS, New Mexico MPS 5030
1999 05 19.25714 14 59 16.53 -19 21 37.3 18.3 R 703 – Catalina Sky Survey MPS 5030
1999 05 19.26716 14 59 15.78 -19 21 37.6 19.8   704 – Lincoln Laboratory ETS, New Mexico MPS 5030
1999 05 19.26726 14 59 15.83 -19 21 37.4 18.1 R 703 – Catalina Sky Survey MPS 5030
1999 05 19.27762 14 59 15.20 -19 21 39.0 18.5 R 703 – Catalina Sky Survey MPS 5030
1999 05 19.28820 14 59 14.50 -19 21 39.5 17.8 R 703 – Catalina Sky Survey MPS 5030
2000 11 01.44242 02 58 49.05 +17 04 45.5 20.5 V 691 – Steward Observatory, Kitt Peak-Spacewatch MPS 178177
2000 11 01.46408 02 58 47.61 +17 04 42.5 21.0 V 691 – Steward Observatory, Kitt Peak-Spacewatch MPS 178177
2000 11 01.49317 02 58 45.69 +17 04 38.5 20.9 V 691 – Steward Observatory, Kitt Peak-Spacewatch MPS 178177
2003 07 07.35545 22 04 15.82 -24 44 42.2 19.1   644 – Palomar Mountain/NEAT MPS 178177
2003 07 07.37411 22 04 15.67 -24 44 48.6 18.5   644 – Palomar Mountain/NEAT MPS 178177
2003 07 07.39370 22 04 15.45 -24 44 55.2 18.1   644 – Palomar Mountain/NEAT MPS 178177
2003 09 19.17526 21 13 30.67 -27 14 57.7 19.4 R 699 – Lowell Observatory-LONEOS MPS 276430
2003 09 19.18531 21 13 30.53 -27 14 53.0   699 – Lowell Observatory-LONEOS MPS 276430
2003 09 19.19534 21 13 30.36 -27 14 49.7   699 – Lowell Observatory-LONEOS MPS 276430
2003 09 19.20539 21 13 30.23 -27 14 44.2   699 – Lowell Observatory-LONEOS MPS 276430
2006 02 28.39658 12 23 49.85 +07 01 25.6 19.7   704 – Lincoln Laboratory ETS, New Mexico MPS 166372
2006 02 28.40820 12 23 49.29 +07 01 27.7 20.1   704 – Lincoln Laboratory ETS, New Mexico MPS 166372
2006 02 28.41983 12 23 48.80 +07 01 31.5 19.7   704 – Lincoln Laboratory ETS, New Mexico MPS 166372
2006 02 28.43146 12 23 48.36 +07 01 34.2 19.9   704 – Lincoln Laboratory ETS, New Mexico MPS 166372
2006 02 28.44308 12 23 47.84 +07 01 37.0 19.8   704 – Lincoln Laboratory ETS, New Mexico MPS 166372
2006 03 05.34041 12 20 07.82 +07 25 13.1 19.1   704 – Lincoln Laboratory ETS, New Mexico MPS 166372
2006 03 05.35233 12 20 07.23 +07 25 14.6 19.9   704 – Lincoln Laboratory ETS, New Mexico MPS 166372
2006 03 05.36430 12 20 06.63 +07 25 20.1 19.4   704 – Lincoln Laboratory ETS, New Mexico MPS 166372
2006 03 05.37612 12 20 06.07 +07 25 21.7 19.9   704 – Lincoln Laboratory ETS, New Mexico MPS 166372
2006 03 23.27330 12 02 53.41 +08 49 18.7 19.1 V 703 – Catalina Sky Survey MPS 167206
2006 03 23.28138 12 02 52.83 +08 49 20.1 19.5 V 703 – Catalina Sky Survey MPS 167206
2006 03 23.28946 12 02 52.40 +08 49 21.9 19.2 V 703 – Catalina Sky Survey MPS 167206
2006 03 23.29756 12 02 51.79 +08 49 23.7 18.5 V 703 – Catalina Sky Survey MPS 167206
2006 03 24.35139 12 01 45.33 +08 53 33.9 18.9 R 699 – Lowell Observatory-LONEOS MPS 168180
2006 03 24.37333 12 01 44.01 +08 53 38.4   699 – Lowell Observatory-LONEOS MPS 168180
2006 03 24.39526 12 01 42.43 +08 53 44.3   699 – Lowell Observatory-LONEOS MPS 168180
2006 03 24.41717 12 01 41.07 +08 53 49.0   699 – Lowell Observatory-LONEOS MPS 168180
2006 03 31.30602 11 54 32.08 +09 16 50.9 19.3   704 – Lincoln Laboratory ETS, New Mexico MPS 168180
2006 03 31.31636 11 54 31.41 +09 16 52.8 19.4   704 – Lincoln Laboratory ETS, New Mexico MPS 168180
2006 03 31.32807 11 54 30.75 +09 16 55.0 19.1   704 – Lincoln Laboratory ETS, New Mexico MPS 168180
2006 04 02.25475 11 52 34.82 +09 21 50.8 19.4 V 703 – Catalina Sky Survey MPS 169791
2006 04 02.26325 11 52 34.28 +09 21 53.3 19.5 V 703 – Catalina Sky Survey MPS 169791
2006 04 02.27178 11 52 33.78 +09 21 54.7 18.9 V 703 – Catalina Sky Survey MPS 169791
2006 04 02.28029 11 52 33.20 +09 21 55.4 19.1 V 703 – Catalina Sky Survey MPS 169791
2006 04 18.23367 11 39 10.44 +09 33 16.5 19.7 V 703 – Catalina Sky Survey MPS 169071
2006 04 18.24178 11 39 10.08 +09 33 18.6 19.5 V 703 – Catalina Sky Survey MPS 169071
2006 04 18.24986 11 39 09.82 +09 33 15.7 19.2 V 703 – Catalina Sky Survey MPS 169071
2006 04 18.25794 11 39 09.46 +09 33 15.7 19.5 V 703 – Catalina Sky Survey MPS 169071
2007 09 10.45155 01 35 38.14 +03 23 15.3 19.8 V 691 – Steward Observatory, Kitt Peak-Spacewatch MPS 214952
2007 09 10.46913 01 35 37.49 +03 23 12.5 19.9 V 691 – Steward Observatory, Kitt Peak-Spacewatch MPS 214952
2007 09 10.48180 01 35 36.99 +03 23 10.9 19.9 V 691 – Steward Observatory, Kitt Peak-Spacewatch MPS 214952
2007 09 11.47026 01 35 01.06 +03 20 35.0 20.2 V 691 – Steward Observatory, Kitt Peak-Spacewatch MPS 214952
2007 09 11.49128 01 35 00.24 +03 20 31.4 19.9 V 691 – Steward Observatory, Kitt Peak-Spacewatch MPS 214952
2007 09 11.50888 01 34 59.54 +03 20 28.7 19.9 V 691 – Steward Observatory, Kitt Peak-Spacewatch MPS 214952
2007 09 18.42176 01 30 04.27 +02 59 49.6 19.8 V 691 – Steward Observatory, Kitt Peak-Spacewatch MPS 215944
2007 09 18.43686 01 30 03.52 +02 59 46.6 19.8 V 691 – Steward Observatory, Kitt Peak-Spacewatch MPS 215944
2007 09 18.45196 01 30 02.75 +02 59 43.6 19.7 V 691 – Steward Observatory, Kitt Peak-Spacewatch MPS 215944
2007 09 20.46472 01 28 23.65 +02 53 02.1 19.5 V 691 – Steward Observatory, Kitt Peak-Spacewatch MPS 215944
2007 09 20.48231 01 28 22.69 +02 52 58.2 20.0 V 691 – Steward Observatory, Kitt Peak-Spacewatch MPS 215944
2007 09 20.49991 01 28 21.77 +02 52 54.6 20.1 V 691 – Steward Observatory, Kitt Peak-Spacewatch MPS 215944
2007 10 11.23470 01 07 53.50 +01 38 53.5 19.9 V 703 – Catalina Sky Survey MPS 220126
2007 10 11.24264 01 07 53.04 +01 38 51.9 19.4 V 703 – Catalina Sky Survey MPS 220126
2007 10 11.25008 01 07 52.50 +01 38 50.1 20.0 V 703 – Catalina Sky Survey MPS 220126
2007 10 11.25720 01 07 52.03 +01 38 47.7 20.0 V 703 – Catalina Sky Survey MPS 220126
2007 10 13.20088 01 05 50.40 +01 32 30.6 19.4   704 – Lincoln Laboratory ETS, New Mexico MPS 220126
2007 10 13.21204 01 05 49.69 +01 32 28.4 20.1   704 – Lincoln Laboratory ETS, New Mexico MPS 220126
2007 10 13.22319 01 05 48.92 +01 32 26.3 19.4   704 – Lincoln Laboratory ETS, New Mexico MPS 220126
2007 10 13.23433 01 05 48.27 +01 32 24.6 20.4   704 – Lincoln Laboratory ETS, New Mexico MPS 220126
2007 10 13.24547 01 05 47.57 +01 32 21.6 20.0   704 – Lincoln Laboratory ETS, New Mexico MPS 220126
2007 10 13.24559 01 05 47.58 +01 32 21.6 19.5 V G96 – Mt. Lemmon Survey MPS 220126
